Вернуться в каталог

HULIANWANG DIGUI-57

АктивенСвязьLEO
NORAD 65114·PAYLOAD·🇨🇳 China

Запущен Aug 4, 2025 с Wenchang Space Launch Site

Loading…

Ближайшие Пролёты (ближайшие 24 часа)

TLE

СвежийSource: Space-Track

Эпоха: Sep 14, 2026, 20:36 UTC

1 65114U 25168J   26257.85874695 -.00000079  00000-0  96805-4 0  9992
2 65114  50.0036   3.7111 0008770  13.0752 347.0346 13.29330505 54632

Отслеживайте HULIANWANG DIGUI-57 в реальном времени с AllMySat

Download on the App Store